User: anonymous   Login
Location: Unspecified
(0.0000°N, 0.0000°E)
Time: 06:20:54
(UTC+00:00)
Language:

EGG - Orbit

View from above orbital plane
View from above orbital plane
View from above satellite
View from above satellite

Ground track
Ground track

The orbit data is extracted from the following two-line orbital elements,

1 41933U 98067KV  18116.61842226 +.00043810 +00000-0 +25643-3 0  9997
2 41933 051.6351 240.9903 0004407 343.5604 016.5253 15.77869711072700
Epoch (UTC): 26 April 2018 14:50:31
Eccentricity: 0.0004407
inclination: 51.6351°
perigee height: 333 km
apogee height: 339 km
right ascension of ascending node: 240.9903°
argument of perigee: 343.5604°
revolutions per day: 15.77869711
mean anomaly at epoch: 16.5253°
orbit number at epoch: 7270

The dashed part of the orbit path shows where the satellite is in the earth's shadow,  

DLR